Date,TemperatureHighF,TemperatureAvgF,TemperatureLowF,DewpointHighF,DewpointAvgF,DewpointLowF,HumidityHigh,HumidityAvg,HumidityLow,PressureMaxIn,PressureMinIn,WindSpeedMaxMPH,WindSpeedAvgMPH,GustSpeedMaxMPH,PrecipitationSumIn
2013-1-1,64,54,45,35,25,17,67,36,17,30.41,30.27,26,8,26,0.00
2013-1-2,68,56,43,43,24,12,67,33,17,30.32,30.23,29,7,29,0.00
2013-1-3,70,56,42,45,27,15,61,36,17,30.35,30.23,11,4,11,0.00
2013-1-4,71,55,43,33,22,12,58,30,13,30.44,30.34,13,4,13,0.00
2013-1-5,69,53,44,46,30,16,81,45,14,30.47,30.35,14,4,14,0.00
2013-1-6,59,50,43,52,44,40,94,82,63,30.38,30.19,24,4,24,0.01
2013-1-7,66,51,38,43,38,29,94,66,28,30.32,30.18,12,3,12,0.00
2013-1-8,78,56,44,50,40,29,83,59,21,30.28,30.20,13,3,13,0.00
2013-1-9,68,53,44,56,47,39,96,81,50,30.30,30.18,11,2,11,0.00
2013-1-10,62,52,41,50,35,18,98,59,20,30.30,30.09,24,5,24,0.00
2013-1-11,59,47,34,31,24,12,71,42,19,30.38,30.24,18,4,18,0.00
2013-1-12,64,45,33,30,25,16,69,48,18,30.35,30.26,16,4,16,0.00
2013-1-13,62,48,40,34,24,6,72,41,19,30.36,30.22,24,6,24,0.00
2013-1-14,61,47,37,29,11,1,45,23,18,30.54,30.32,27,7,27,0.00
2013-1-15,64,50,37,40,22,6,64,37,17,30.63,30.51,14,4,14,0.00
2013-1-16,75,54,39,34,28,20,67,42,14,30.54,30.33,13,3,13,0.00
2013-1-17,80,61,44,38,26,17,57,30,11,30.36,30.23,21,5,21,0.00
2013-1-18,84,66,51,36,22,15,41,20,11,30.32,30.22,17,6,17,0.00
2013-1-19,80,67,54,28,20,16,33,17,11,30.35,30.23,24,8,27,0.00
2013-1-20,84,66,51,30,21,14,33,19,11,30.32,30.17,23,5,23,0.00
2013-1-21,82,66,50,24,19,13,31,17,10,30.28,30.15,30,7,30,0.00
2013-1-22,82,66,54,44,22,13,34,19,10,30.26,30.17,17,6,17,0.00
2013-1-23,78,66,55,50,30,17,83,32,13,30.28,30.16,19,6,19,0.06
2013-1-24,63,58,53,58,55,50,99,91,76,30.35,30.25,17,6,17,0.61
2013-1-25,63,60,57,58,55,51,97,83,65,30.30,30.14,17,4,17,0.12
2013-1-26,72,58,54,65,56,53,99,93,68,30.15,30.05,11,3,11,0.02
2013-1-27,67,55,44,59,42,23,98,66,21,30.22,29.41,21,5,21,0.00
2013-1-28,65,51,40,39,31,21,71,47,20,30.37,30.21,22,6,22,0.00
2013-1-29,65,50,41,44,37,29,89,65,29,30.41,30.31,13,2,13,0.00
2013-1-30,71,53,42,46,41,37,91,66,33,30.51,30.39,10,3,10,0.00
2013-1-31,78,59,44,50,43,35,84,60,22,30.42,30.26,11,3,11,0.00
2013-2-1,78,59,49,54,46,36,93,66,22,30.34,30.27,15,4,15,0.00
2013-2-2,76,63,53,56,46,37,81,56,30,30.37,30.28,12,3,12,0.00
2013-2-3,74,58,47,56,50,43,97,77,41,30.32,30.17,12,4,12,0.00
2013-2-4,70,54,42,56,48,42,99,83,50,30.27,30.14,14,3,14,0.00
2013-2-5,64,53,46,54,50,44,99,91,68,30.27,30.16,11,3,11,0.00
2013-2-6,67,55,45,56,48,43,97,80,53,30.28,30.17,12,3,12,0.00
2013-2-7,66,52,43,52,46,42,97,80,56,30.31,30.14,14,4,14,0.00
2013-2-8,55,49,42,44,40,37,85,73,59,30.15,30.03,25,7,25,0.00
2013-2-9,62,48,37,44,37,30,90,69,31,30.26,30.11,19,5,19,0.00
2013-2-10,62,50,42,45,40,34,89,71,43,30.27,30.18,15,4,15,0.00
2013-2-11,68,52,41,44,36,19,91,60,18,30.42,27.30,20,4,20,0.00
2013-2-12,66,51,39,42,33,18,74,52,18,30.52,30.40,15,5,15,0.00
2013-2-13,68,52,39,51,40,27,85,68,24,30.44,30.30,15,4,15,0.00
2013-2-14,72,54,40,51,43,29,89,68,31,30.38,30.24,13,3,13,0.00
2013-2-15,83,69,48,40,26,16,71,24,11,30.36,30.27,32,9,32,0.00
2013-2-16,82,68,49,39,23,15,45,21,10,30.32,30.15,24,6,24,0.00
2013-2-17,69,55,43,54,42,23,93,64,22,30.32,30.09,14,4,14,0.00
2013-2-18,66,55,50,51,48,44,93,79,51,30.24,30.11,14,4,14,0.00
2013-2-19,58,51,43,50,46,34,98,83,60,30.15,29.89,24,6,24,0.17
2013-2-20,67,52,40,40,30,20,69,46,18,30.17,29.90,23,6,23,0.00
2013-2-21,64,49,38,45,36,29,78,62,31,30.28,30.15,17,4,17,0.00
2013-2-22,68,53,42,48,37,24,85,58,21,30.37,30.27,13,4,13,0.00
2013-2-23,65,52,40,52,43,33,90,71,38,30.34,30.05,14,4,14,0.00
2013-2-24,72,56,42,42,26,15,89,38,13,30.38,30.18,23,6,23,0.00
2013-2-25,71,54,43,50,31,13,84,48,13,30.41,30.23,14,5,14,0.00
2013-2-26,69,54,37,49,37,24,82,58,19,30.30,30.16,19,4,19,0.00
2013-2-27,79,63,46,34,21,15,61,22,11,30.47,30.29,17,6,17,0.00
2013-2-28,78,61,45,47,31,19,64,36,12,30.50,30.39,16,4,16,0.00
2013-3-1,86,68,54,52,31,19,65,28,11,30.48,30.32,25,6,25,0.00
2013-3-2,85,66,53,55,38,22,96,44,15,30.38,30.23,14,5,14,0.00
2013-3-3,72,58,51,57,52,42,94,80,35,30.30,30.14,17,5,17,0.00
2013-3-4,66,54,47,54,50,46,97,85,60,30.27,30.17,17,4,17,0.00
2013-3-5,63,53,46,52,49,44,95,86,64,30.30,30.19,15,4,15,0.00
2013-3-6,60,52,45,50,47,42,97,85,58,30.32,30.17,10,3,10,0.00
2013-3-7,63,54,48,54,48,41,98,81,48,30.18,30.00,14,4,14,0.45
2013-3-8,62,52,43,52,46,42,99,80,59,30.19,29.95,22,6,22,0.30
2013-3-9,66,55,40,50,43,31,91,66,29,30.38,30.18,24,5,24,0.00
2013-3-10,76,59,45,52,41,29,91,56,22,30.45,30.33,17,5,17,0.00
2013-3-11,71,56,43,53,44,38,90,68,34,30.36,30.21,14,4,14,0.00
2013-3-12,70,56,45,54,48,41,93,74,46,30.26,30.19,12,3,12,0.00
2013-3-13,73,56,44,56,50,42,99,82,43,30.28,30.19,13,3,13,0.00
2013-3-14,63,54,46,59,51,45,99,92,72,30.27,30.17,17,4,17,0.00
2013-3-15,68,55,49,63,53,49,99,91,64,30.20,30.10,14,3,14,0.00
2013-3-16,64,53,49,56,52,48,99,93,70,30.15,30.04,15,3,15,0.00
2013-3-17,69,55,49,57,52,48,99,89,58,30.18,30.08,14,3,14,0.00
2013-3-18,63,55,47,53,51,47,99,87,67,30.25,30.14,13,3,13,0.00
2013-3-19,65,56,48,56,52,47,97,87,68,30.29,30.19,17,5,17,0.00
2013-3-20,68,59,51,58,53,49,98,82,61,30.27,30.11,14,3,14,0.00
2013-3-21,73,59,48,56,52,47,94,78,49,30.11,29.95,13,4,13,0.00
2013-3-22,73,59,45,54,46,30,94,64,21,30.06,29.94,16,4,16,0.00
2013-3-23,70,56,44,55,45,29,92,68,34,30.19,30.05,15,4,15,0.00
2013-3-24,71,58,46,56,50,39,99,77,34,30.19,30.05,18,4,18,0.00
2013-3-25,69,57,45,57,50,38,96,80,34,30.15,30.05,14,4,14,0.00
2013-3-26,65,56,45,55,50,44,96,83,56,30.15,30.06,14,4,14,0.00
2013-3-27,70,57,50,56,52,49,99,84,52,30.21,30.09,15,5,15,0.00
2013-3-28,68,57,50,56,53,49,99,88,63,30.25,30.17,15,4,15,0.00
2013-3-29,68,60,54,58,55,53,97,84,66,30.28,30.19,17,6,17,0.00
2013-3-30,66,57,53,57,54,52,99,89,71,30.30,30.22,16,5,16,0.00
2013-3-31,66,58,53,62,55,52,98,91,71,30.29,30.21,16,5,16,0.14
2013-4-1,68,57,52,59,53,49,99,88,61,30.34,30.23,17,5,17,0.00
2013-4-2,70,58,48,58,52,47,97,82,59,30.26,30.15,16,4,16,0.00
2013-4-3,68,58,50,58,54,49,99,87,61,30.26,30.15,16,5,16,0.00
2013-4-4,67,58,54,58,55,53,98,89,68,30.28,30.16,23,6,23,0.00
2013-4-5,70,61,54,58,55,51,92,82,62,30.26,30.12,14,4,14,0.00
2013-4-6,73,61,52,58,54,50,96,79,53,30.26,30.08,17,4,17,0.00
2013-4-7,76,62,50,58,53,49,94,75,42,30.13,29.91,12,3,12,0.00
2013-4-8,70,60,51,52,40,26,95,53,20,30.00,29.85,36,9,36,0.01
2013-4-9,72,58,44,50,40,24,79,54,17,30.16,29.99,24,6,24,0.00
2013-4-10,81,63,48,52,39,24,84,47,12,30.27,30.12,18,4,18,0.00
2013-4-11,68,58,48,54,49,41,88,72,54,30.14,29.93,18,4,18,0.00
2013-4-12,64,57,52,54,52,48,98,86,69,30.04,29.95,15,5,15,0.00
2013-4-13,61,56,52,55,53,51,98,93,79,30.08,30.00,12,4,12,0.00
2013-4-14,64,57,54,55,53,51,99,87,66,30.05,29.98,13,5,13,0.00
2013-4-15,56,56,56,51,51,51,83,83,83,29.99,29.99,7,7,7,0.00
2013-4-16,64,57,53,51,45,16,83,70,17,30.17,29.98,19,6,19,0.00
2013-4-17,68,58,47,48,35,19,72,44,15,30.28,30.17,19,6,19,0.00
2013-4-18,79,64,51,42,26,15,58,27,11,30.36,30.28,21,7,21,0.00
2013-4-19,79,64,50,53,37,16,90,44,12,30.33,29.99,17,5,17,0.00
2013-4-20,80,63,51,57,50,40,89,65,27,30.15,30.02,15,4,15,0.00
2013-4-21,78,62,52,59,53,37,97,76,24,30.16,30.07,12,4,12,0.00
2013-4-22,69,60,56,56,55,53,93,83,63,30.17,30.04,14,5,14,0.00
2013-4-23,68,60,56,55,53,52,94,79,61,30.12,30.03,15,5,15,0.00
2013-4-24,60,57,54,58,54,51,98,90,80,30.14,30.05,8,3,8,0.00
2013-4-25,73,60,50,58,50,44,92,70,41,30.28,30.11,18,5,18,0.00
2013-4-26,69,60,50,56,52,47,96,78,56,30.31,30.25,16,5,16,0.00
2013-4-27,69,59,50,58,54,48,98,83,60,30.30,30.14,19,5,19,0.00
2013-4-28,66,58,52,59,55,52,98,91,73,30.16,30.01,14,4,17,0.00
2013-4-29,68,59,53,59,56,52,99,90,73,30.06,29.93,12,4,12,0.00
2013-4-30,65,59,55,59,55,51,99,88,69,30.04,29.97,12,3,12,0.01
2013-5-1,70,63,54,59,55,51,91,77,59,30.24,30.03,17,5,17,0.00
2013-5-2,91,67,50,57,46,18,97,59,10,30.27,30.16,28,7,28,0.00
2013-5-3,96,73,55,60,36,16,82,34,10,30.18,29.90,15,5,15,0.00
2013-5-4,73,63,52,60,55,44,94,76,59,29.98,29.88,17,5,17,0.00
2013-5-5,63,58,58,55,53,52,83,81,71,30.08,29.97,14,5,14,0.00
2013-5-6,67,61,56,62,56,52,99,84,59,30.17,30.02,13,4,13,0.19
2013-5-7,72,62,56,59,54,51,92,75,50,30.21,30.13,20,5,20,0.00
2013-5-8,72,62,54,58,54,49,93,77,50,30.25,30.20,18,6,18,0.00
2013-5-9,72,61,52,58,54,49,93,78,52,30.25,30.16,17,5,17,0.00
2013-5-10,71,62,54,60,56,51,95,83,60,30.25,30.14,20,5,20,0.00
2013-5-11,75,63,55,66,59,54,98,88,62,30.22,30.15,17,5,17,0.00
2013-5-12,76,66,55,64,60,55,99,82,61,30.20,30.05,17,4,17,0.00
2013-5-13,76,65,58,62,59,56,95,81,61,30.13,30.04,17,5,17,0.00
2013-5-14,74,61,53,61,55,52,99,83,57,30.14,30.05,21,5,21,0.00
2013-5-15,68,60,52,58,54,49,92,80,61,30.19,30.08,16,5,16,0.00
2013-5-16,69,60,51,58,54,49,94,82,65,30.14,30.03,17,4,17,0.00
2013-5-17,70,62,53,59,54,50,93,78,59,30.13,30.05,16,4,16,0.00
2013-5-18,71,61,52,59,53,49,90,76,54,30.20,30.10,17,4,17,0.00
2013-5-19,75,64,52,59,54,49,92,73,44,30.15,30.00,17,4,17,0.00
2013-5-20,73,64,53,61,57,50,91,77,49,30.10,30.00,18,5,18,0.00
2013-5-21,72,64,59,63,59,54,97,84,69,30.09,29.96,17,5,17,0.00
2013-5-22,70,62,52,58,53,49,92,75,55,30.00,29.91,19,5,19,0.00
2013-5-23,70,60,52,57,50,45,88,71,45,30.08,29.97,17,6,17,0.00
2013-5-24,73,60,50,57,51,46,92,73,47,30.15,30.05,18,6,18,0.00
2013-5-25,71,60,50,57,52,46,89,75,54,30.18,30.10,17,5,17,0.00
2013-5-26,72,62,50,57,53,47,92,75,55,30.21,30.12,16,5,16,0.00
2013-5-27,74,64,52,59,55,49,90,74,55,30.15,29.98,14,4,14,0.00
2013-5-28,76,66,56,60,57,53,90,72,52,30.01,29.86,21,5,21,0.00
2013-5-29,78,67,58,60,57,54,88,71,52,29.96,29.84,15,5,15,0.00
2013-5-30,74,65,55,61,56,52,92,73,57,30.01,29.90,14,5,14,0.00
2013-5-31,74,65,58,62,58,53,93,78,60,30.06,29.95,17,4,17,0.00
2013-6-1,73,64,58,63,60,54,95,85,67,30.00,29.88,14,5,14,0.00
2013-6-2,70,63,59,63,60,58,99,89,76,29.98,29.91,14,4,14,0.00
2013-6-3,72,64,57,62,59,55,99,86,63,30.04,29.93,15,5,15,0.00
2013-6-4,71,63,55,61,57,51,92,81,64,30.12,30.02,18,6,18,0.00
2013-6-5,68,60,54,58,56,51,92,84,67,30.17,30.07,22,6,22,0.00
2013-6-6,69,61,54,59,56,52,96,87,69,30.11,30.02,19,5,19,0.00
2013-6-7,69,61,58,60,58,56,95,89,71,30.06,29.93,15,4,15,0.00
2013-6-8,67,62,59,61,58,57,94,88,77,30.05,29.93,12,4,12,0.00
2013-6-9,66,62,59,63,59,56,99,89,81,30.08,30.02,12,4,12,0.01
2013-6-10,76,66,60,60,57,52,92,75,49,30.10,30.03,17,5,17,0.00
2013-6-11,73,64,56,63,59,54,96,84,65,30.09,30.02,18,5,18,0.00
2013-6-12,72,63,59,60,59,58,97,89,67,30.18,30.07,17,5,17,0.00
2013-6-13,68,63,57,62,59,54,99,88,75,30.16,30.03,14,4,14,0.00
2013-6-14,71,63,54,62,58,52,97,85,69,30.07,29.98,17,5,17,0.00
2013-6-15,71,62,59,63,59,56,99,89,69,30.12,30.02,16,5,16,0.01
2013-6-16,74,63,56,61,58,54,93,84,59,30.19,30.09,19,5,19,0.00
2013-6-17,75,63,54,63,58,52,98,83,61,30.15,30.01,16,4,16,0.00
2013-6-18,73,65,56,65,57,53,93,78,61,30.08,29.96,16,5,16,0.00
2013-6-19,78,67,54,60,55,51,91,69,41,30.02,29.90,16,5,16,0.00
2013-6-20,77,66,53,61,55,48,85,69,44,30.00,29.93,16,4,16,0.00
2013-6-21,74,66,54,61,55,50,85,69,51,30.05,29.97,14,4,14,0.00
2013-6-22,74,64,56,63,57,50,92,78,63,30.07,29.96,16,5,16,0.00
2013-6-23,70,61,56,61,58,54,92,89,70,30.04,29.97,9,2,9,0.00